Regional Weather Roundup
Issued by NWS Wilmington, NC

Home | Current Version | Previous Version | Text Only | Print | Product List | Glossary On
Versions: 1 2 3 4 5 6 7 8 9 10 11 12 13 14 15 16 17 18 19 20 21 22 23 24 25 26 27 28
000
ASUS42 KILM 232210
RWRILM
RWRILM
REGIONAL HOURLY WEATHER ROUNDUP
NATIONAL WEATHER SERVICE WILMINGTON NC
600 PM EDT THU OCT 23 2014

NOTE: "FAIR" INDICATES FEW OR NO CLOUDS BELOW 12,000 FEET WITH NO
SIGNIFICANT WEATHER AND/OR OBSTRUCTIONS TO VISIBILITY.

...............WFO WILMINGTON COUNTY WARNING AREA...............

......COASTAL NC AND SC COUNTIES......

CITY           SKY/WX    TMP DP  RH WIND       PRES   REMARKS
WILMINGTON     CLEAR     67  44  43 W7        29.92R
SOUTHPORT      CLEAR     66  44  44 W9        29.93S
N MYRTLE BEACH CLEAR     66  45  46 W6        29.95S
MYRTLE BEACH   CLEAR     68  43  40 W9        29.96S

......INLAND NC AND SC COUNTIES.......

CITY           SKY/WX    TMP DP  RH WIND       PRES   REMARKS
LUMBERTON      CLEAR     67  44  43 W8        29.94R
ELIZABETHTOWN  CLEAR     68  45  43 W5        29.93R
WHITEVILLE     CLEAR     66  44  45 W3        29.94R
FLORENCE       CLEAR     67  40  37 NW8       29.97S
DARLINGTON     CLEAR     66  41  39 W7        29.99R

....................REST OF NORTH CAROLINA......................

.........EASTERN NC.........

CITY           SKY/WX    TMP DP  RH WIND       PRES   REMARKS
CAPE HATTERAS  CLEAR     63  50  62 VRB7      29.87R
JACKSONVILLE   CLEAR     64  45  48 W3        29.92R
MOREHEAD CITY  CLEAR     65  48  54 W9        29.90R
KENANSVILLE    CLEAR     66  46  48 NW5       29.93R
NEW BERN       CLEAR     67  47  48 NW7       29.91R
ELIZABETH CITY CLEAR     65  48  54 W9        29.87R

.........CENTRAL NC.........

CITY           SKY/WX    TMP DP  RH WIND       PRES   REMARKS
RALEIGH DURHAM CLEAR     67  44  43 NW3       29.94R
ROCKY MOUNT    CLEAR     66  46  48 NW5       29.91R
ROANOKE RAPIDS NOT AVBL
FAYETTEVILLE   CLEAR     69  44  40 NW8       29.93R
HOFFMAN        CLEAR     66  45  45 W7        29.98R

.........WESTERN NC.........

CITY           SKY/WX    TMP DP  RH WIND       PRES   REMARKS
CHARLOTTE      PTCLDY    67  39  35 CALM      30.00S
GREENSBORO     CLEAR     65  42  43 NW12      29.97R
HICKORY        NOT AVBL
BOONE          NOT AVBL
ASHEVILLE      NOT AVBL

.....................REST OF SOUTH CAROLINA.....................

.........EASTERN SC.........

CITY           SKY/WX    TMP DP  RH WIND       PRES   REMARKS
CHARLESTON     CLEAR     69  45  41 W7        29.99R
BEAUFORT MCAS  PTCLDY    69  46  43 W5        30.00S
HILTON HEAD    NOT AVBL

.........CENTRAL SC.........

CITY           SKY/WX    TMP DP  RH WIND       PRES   REMARKS
COLUMBIA       PTCLDY    69  39  33 W7        29.99R
ORANGEBURG     CLEAR     69  40  34 NW6       29.99S
SUMTER SHAW    CLEAR     67  44  43 N8        29.98R

.........WESTERN SC.........

CITY           SKY/WX    TMP DP  RH WIND       PRES   REMARKS
GREENVILLE     NOT AVBL
ROCK HILL      CLEAR     65  41  41 N5        30.00S
ANDERSON       CLEAR     67  42  40 S3        30.01R
CLEMSON        NOT AVBL
GREENWOOD      CLEAR     64  45  49 W3        30.02R


...................COASTAL AND OFFSHORE REPORTS..................

................LOCAL PIERS AND NC RESERVE................


STATION/POSITION TIME  SKY/WX   TEMP    WIND        PRES    VSBY
                                AIR SEA DIR/SP/G
                 (UTC)          (F)     (DEG/KT/KT) (MB)    (MI)
JOHNY MRCER PIER 2200            68 73  280/  8/ 12 1012.6R
NC RESRV MASNBRO NOT AVBL
OCEAN CREST PIER 2200            67 70  250/ 11/ 13 1012.5R
SPRINGMAID  PIER 2200            67 70  250/  6/  7 1014.5R


................COASTAL AND OFFSHORE BUOYS................


STATION/POSITION TIME  SKY/WX   TEMP    WIND        PRES    VSBY
                                AIR SEA DIR/SP/G
                 (UTC)          (F)     (DEG/KT/KT) (MB)    (MI)
DIMNDSHOAL 41025 2200            65     290/ 17/ 21 1011.5R
WVE H/P(F/S)=  5/ 6 WND WVE H/P(F/S)=  5/ 6

CAPE LOOKOUT     2100            66     290/ 13/ 15 1011.9S
ONSLOW BAY 41036 2200            68 75  300/ 16/ 19 1012.2R
WVE H/P(F/S)=  3/ 4 WND WVE H/P(F/S)=  3/ 4 SWL H/P/D(F/S/D)=  2/100/10

5 WRITEBCH 41038 2200            65 72  280/ 14/ 16   N/A
MASONBORO  41110 2200               72                N/A
WVE H/P(F/S)=  2/11 WND WVE H/P(F/S)=  2/10 SWL H/P/D(F/S/D)=  2/110/11

WILM HARBR 41108 2200               71                N/A
WVE H/P(F/S)=  2/ 4 WND WVE H/P(F/S)=  2/ 4 SWL H/P/D(F/S/D)=  2/100/13

27WRITEBCH 41037 2100            65 75  270/ 14/ 17 1012.8R
FRYING PAN 41013 2200            66 74  270/ 14/ 17 1014.4F
WVE H/P(F/S)=  3/ 4 WND WVE H/P(F/S)=  3/ 4 SWL H/P/D(F/S/D)=  2/ 90/12

SUNST NRSH 41024 NOT AVBL
CAPRS NRSH 41029 NOT AVBL
EDISTO     41004 2200            66 78  290/ 10/ 14 1014.8F
WVE H/P(F/S)=  2/ 5 WND WVE H/P(F/S)=  2/ 5 SWL H/P/D(F/S/D)=  2/10



..........OFFSHORE BUOYS BEYOND 100 NM OFFSHORE...........
.....IN A TRIANGLE---HAT TO BERMUDA TO BAHAMAS TO HAT.....


STATION/POSITION TIME  SKY/WX   TEMP    WIND        PRES    VSBY
                                AIR SEA DIR/SP/G
                 (UTC)          (F)     (DEG/KT/KT) (MB)    (MI)
150E HAT   41001 NOT AVBL
W BERMUDA  41048 2149            75 79  270/ 19/ 25 1010.7R
WVE H/P(F/S)= 11/11 WND WVE H/P(F/S)=  8/ 7 SWL H/P/D(F/S/D)=  7/340/11

ATLANTIC S 41049 2118            81 81  220/ 10/ 12 1013.7R
WVE H/P(F/S)=  3/ 8 WND WVE H/P(F/S)=  2/ 4 SWL H/P/D(F/S/D)=  3/ 80/ 8

E BAHAMAS  41046 2058            83 84  170/ 10/ 10 1012.9R
WVE H/P(F/S)=  3/ 9 WND WVE H/P(F/S)=  2/ 4 SWL H/P/D(F/S/D)=  3/ 80/ 9

NE BAHAMAS 41047 2053            76 82  330/  2/  8 1012.9
WVE H/P(F/S)=  3/ 8 WND WVE H/P(F/S)=  2/ 4

120E CANVRL41010 2200            75 81   20/  8/ 10 1014.2S
WVE H/P(F/S)=  3/ 9 WND WVE H/P(F/S)=  2/ 4 SWL H/P/D(F/S/D)=  3/ 60/ 9


END



USA.gov is the U.S. government's official web portal to all federal, state and local government web resources and services.